Weather observations for the past three days for
Austin Municipal
Imperial (Metric)
Date Time (cdt) Wind (mph) Vis. (mi.) Weather Sky Cond. Temperature (ºF) Relative Humidity Wind Chill (°F) Heat Index (°F) Pressure Precipitation (in)
Air Dwpt 6 hour altimeter (in) sea level (mb) 1 hr 3 hr 6 hr
Max. Min.
25 14:15 N 6 10.00 Fair CLR 80.6 60.8 51% 81 29.85 0.0
25 13:55 N 5 7.00 Fair CLR 82.4 60.8 48% 83 29.84 0.0
25 13:35 N 7 10.00 Fair CLR 82.4 62.6 51% 83 29.85 0.0
25 13:16 Calm 10.00 Fair CLR 84.2 60.8 45% 84 29.85 0.0
25 12:55 N 6 10.00 Fair CLR 82.4 60.8 48% 83 29.85 0.0
25 12:35 NW 5 10.00 Fair CLR 82.4 59 45% 82 29.85 0.0
25 12:15 NW 6 10.00 Fair CLR 80.6 60.8 51% 81 29.84 0.0
25 11:55 Calm 10.00 Fair CLR 80.6 60.8 51% 81 29.82 0.0
25 11:35 Calm 10.00 Fair CLR 78.8 60.8 54% 80 29.81 0.0
25 11:15 N 5 10.00 Fair CLR 78.8 60.8 54% 80 29.8 0.0
25 10:56 N 5 10.00 Fair CLR 80.6 60.8 51% 81 29.79 0.0
25 10:35 N 8 10.00 Fair CLR 82.4 60.8 48% 83 29.79 0.0
25 10:15 N 5 10.00 Fair CLR 82.4 62.6 51% 83 29.79 0.0
25 09:55 N 8 10.00 Fair CLR 82.4 60.8 48% 83 29.77 0.0
25 09:35 N 7 G 17 10.00 Fair CLR 80.6 60.8 51% 81 29.77 0.0
25 09:15 N 8 10.00 Fair CLR 80.6 66.2 62% 83 29.78 0.0
25 08:55 N 10 G 16 10.00 Fair CLR 80.6 68 66% 83 29.76 0.0
25 08:36 N 10 10.00 Fair CLR 78.8 69.8 74% 81 29.76 0.0
25 08:15 N 7 G 17 10.00 Fair CLR 78.8 71.6 79% 82 29.76 0.0
25 07:55 N 7 10.00 Fair CLR 78.8 71.6 79% 82 29.75 0.0
25 07:35 N 5 10.00 Fair CLR 77 71.6 83% 78 29.75 0.0
25 07:15 N 8 G 17 10.00 Fair CLR 77 71.6 83% 78 29.74 0.0
25 06:55 N 10 10.00 Fair CLR 77 71.6 83% 78 29.75 0.0
25 06:35 N 12 G 16 10.00 Fair CLR 77 73.4 89% 78 29.74 0.0
25 06:16 N 8 10.00 Fair CLR 77 73.4 89% 78 29.72 0.0
25 05:55 N 7 10.00 Fair CLR 77 73.4 89% 78 29.7 0.0
25 05:35 N 9 10.00 Fair CLR 77 73.4 89% 78 29.7 0.0
25 05:15 N 9 10.00 Fair CLR 78.8 75.2 89% 82 29.7 0.0
25 04:55 NW 9 10.00 Fair CLR 78.8 75.2 89% 82 29.69 0.0
25 04:35 NW 7 10.00 Fair CLR 78.8 75.2 89% 82 29.68 0.0
25 04:15 NW 6 10.00 Fair CLR 78.8 75.2 89% 82 29.66 0.0
25 03:56 Calm 10.00 Fair CLR 80.6 75.2 84% 86 29.66 0.0
25 03:35 W 5 10.00 Partly Cloudy SCT041 80.6 75.2 84% 86 29.66 0.0
25 03:15 W 5 10.00 Partly Cloudy SCT041 80.6 75.2 84% 86 29.66 0.0
25 02:55 W 5 10.00 Mostly Cloudy BKN060 82.4 75.2 79% 89 29.64 0.0
25 02:35 W 6 10.00 Overcast OVC060 82.4 75.2 79% 89 29.64 0.0
25 02:15 W 6 10.00 Partly Cloudy SCT050 82.4 75.2 79% 89 29.64 0.0
25 01:55 W 8 10.00 Fair CLR 82.4 75.2 79% 89 29.63 0.0
25 01:36 SW 9 10.00 Fair CLR 80.6 75.2 84% 86 29.62 0.0
25 01:15 SW 9 G 16 10.00 Fair CLR 80.6 75.2 84% 86 29.61 0.0
25 00:55 SW 13 G 17 10.00 Fair CLR 80.6 75.2 84% 86 29.61 0.0
25 00:35 SW 13 G 18 10.00 Fair CLR 80.6 75.2 84% 86 29.61 0.0
25 00:15 S 12 G 18 10.00 Fair CLR 82.4 75.2 79% 89 29.62 0.0
24 23:55 S 12 G 20 10.00 Fair CLR 80.6 75.2 84% 86 29.63 0.0
24 23:36 S 13 G 17 10.00 Fair CLR 80.6 75.2 84% 86 29.63 0.0
24 23:15 S 12 G 17 10.00 Fair CLR 80.6 75.2 84% 86 29.63 0.0
24 22:55 S 13 G 18 10.00 Fair CLR 82.4 75.2 79% 89 29.64 0.0
24 22:35 S 9 G 16 10.00 Fair CLR 82.4 75.2 79% 89 29.64 0.0
24 22:15 S 12 10.00 Fair CLR 82.4 73.4 74% 88 29.65 0.0
24 21:55 S 14 G 18 10.00 Fair CLR 82.4 73.4 74% 88 29.66 0.0
24 21:35 S 13 G 20 10.00 Fair CLR 82.4 73.4 74% 88 29.66 0.0
24 21:16 S 12 G 18 10.00 Fair CLR 82.4 73.4 74% 88 29.66 0.0
24 20:55 S 13 G 17 10.00 Fair CLR 82.4 73.4 74% 88 29.66 0.0
24 20:35 S 9 10.00 Fair CLR 82.4 73.4 74% 88 29.68 0.0
24 20:15 SE 9 10.00 Fair CLR 82.4 73.4 74% 88 29.68 0.0
24 19:55 SE 8 10.00 Fair CLR 84.2 73.4 70% 91 29.7 0.0
24 19:35 E 5 10.00 Fair CLR 84.2 73.4 70% 91 29.72 0.0
24 19:15 S 8 G 18 10.00 Fair CLR 84.2 73.4 70% 91 29.69 0.0
24 18:35 S 12 G 20 10.00 Fair CLR 84.2 73.4 70% 91 29.69 0.0
24 18:15 S 12 G 20 10.00 Fair CLR 84.2 73.4 70% 91 29.7 0.0
24 17:55 S 10 G 20 10.00 Light Rain CLR 84.2 73.4 70% 91 29.72 0.0
24 17:35 S 8 10.00 Partly Cloudy SCT050 84.2 73.4 70% 91 29.74 0.0
24 17:15 S 6 10.00 Mostly Cloudy SCT044 BKN050 BKN065 86 73.4 66% 93 29.77 0.0
24 16:55 S 8 10.00 Mostly Cloudy BKN044 BKN050 86 73.4 66% 93 29.78 0.0
24 16:36 S 8 10.00 Partly Cloudy SCT044 87.8 73.4 62% 96 29.75 0.0
24 16:15 S 10 10.00 Fair CLR 87.8 73.4 62% 96 29.77 0.0
24 15:55 S 7 G 17 10.00 Fair CLR 87.8 71.6 59% 94 29.79 0.0
24 15:35 S 7 G 20 10.00 Fair CLR 87.8 71.6 59% 94 29.77 0.0
24 15:15 S 13 G 20 10.00 Fair CLR 87.8 71.6 59% 94 29.77 0.0
24 14:55 S 13 G 23 10.00 Fair CLR 87.8 71.6 59% 94 29.77 0.0
24 14:36 S 12 G 18 10.00 Fair CLR 86 71.6 62% 92 29.77 0.0
24 14:15 S 10 G 21 10.00 Fair CLR 86 71.6 62% 92 29.78 0.0
24 13:55 S 14 G 21 10.00 Fair CLR 84.2 71.6 66% 90 29.79 0.0
24 13:35 S 10 G 20 10.00 Fair CLR 84.2 71.6 66% 90 29.8 0.0
24 13:15 SE 14 G 22 10.00 Fair CLR 84.2 71.6 66% 90 29.81 0.0
24 12:55 SE 14 G 24 10.00 Fair CLR 84.2 71.6 66% 90 29.82 0.0
24 12:35 SE 13 G 21 10.00 Fair CLR 82.4 71.6 70% 87 29.83 0.0
24 12:16 S 10 G 17 10.00 Fair CLR 82.4 69.8 66% 86 29.83 0.0
24 11:55 S 9 G 24 10.00 Fair CLR 82.4 69.8 66% 86 29.84 0.0
24 11:35 SE 12 G 20 10.00 Fair CLR 82.4 69.8 66% 86 29.85 0.0
24 11:15 S 13 G 21 10.00 Fair CLR 80.6 68 66% 83 29.86 0.0
24 10:55 S 9 G 18 10.00 Fair CLR 80.6 66.2 62% 83 29.88 0.0
24 10:35 SE 10 G 17 10.00 Fair CLR 80.6 64.4 58% 82 29.88 0.0
24 10:15 S 14 G 18 10.00 Fair CLR 78.8 64.4 61% 81 29.88 0.0
24 09:56 S 12 G 17 10.00 Fair CLR 78.8 62.6 58% 80 29.89 0.0
24 09:35 S 10 G 18 10.00 Fair CLR 78.8 62.6 58% 80 29.88 0.0
24 09:15 S 10 G 16 10.00 Partly Cloudy SCT065 75.2 62.6 65% 77 29.89 0.0
24 08:55 S 7 10.00 Mostly Cloudy BKN065 75.2 64.4 69% 77 29.9 0.0
24 08:35 SE 6 10.00 Overcast OVC065 73.4 66.2 78% 29.91 0.0
24 08:15 SE 6 10.00 Overcast OVC065 71.6 64.4 78% 29.91 0.0
24 07:55 SE 6 10.00 Mostly Cloudy BKN075 71.6 64.4 78% 29.91 0.0
24 07:36 S 6 10.00 Partly Cloudy SCT075 71.6 64.4 78% 29.91 0.0
24 07:15 S 3 10.00 Fair CLR 69.8 64.4 83% 29.91 0.0
24 06:55 S 5 10.00 Fair CLR 69.8 64.4 83% 29.91 0.0
24 06:35 Calm 10.00 Fair CLR 69.8 64.4 83% 29.91 0.0
24 06:15 SE 5 10.00 Partly Cloudy SCT046 66.2 64.4 94% 29.91 0.0
24 05:55 SE 3 10.00 Mostly Cloudy BKN050 66.2 64.4 94% 29.91 0.0
24 05:35 SE 3 10.00 Overcast OVC048 66.2 64.4 94% 29.92 0.0
24 05:16 SE 3 10.00 Overcast OVC050 66.2 64.4 94% 29.92 0.0
24 04:55 Calm 10.00 Mostly Cloudy BKN060 BKN065 66.2 64.4 94% 29.91 0.0
24 04:35 SE 3 10.00 Mostly Cloudy SCT060 BKN070 64.4 64.4 100% 29.91 0.0
24 04:15 Calm 10.00 Mostly Cloudy BKN060 BKN070 64.4 64.4 100% 29.91 0.0
24 03:55 Calm 10.00 Mostly Cloudy BKN060 BKN070 64.4 62.6 94% 29.91 0.0
24 03:35 Calm 10.00 Mostly Cloudy BKN060 BKN070 64.4 62.6 94% 29.92 0.0
24 03:15 Calm 10.00 Partly Cloudy SCT070 64.4 62.6 94% 29.92 0.0
24 02:56 SW 5 10.00 Partly Cloudy SCT070 SCT085 64.4 62.6 94% 29.92 0.0
24 02:35 Calm 10.00 Partly Cloudy SCT085 64.4 62.6 94% 29.92 0.0
24 02:15 Calm 10.00 Fair CLR 64.4 62.6 94% 29.92 0.0
24 01:55 Calm 10.00 Partly Cloudy SCT085 64.4 64.4 100% 29.92 0.0
24 01:35 Calm 10.00 Mostly Cloudy BKN085 66.2 64.4 94% 29.93 0.0
24 01:15 Calm 10.00 Partly Cloudy SCT085 64.4 62.6 94% 29.93 0.0
24 00:55 Calm 10.00 Partly Cloudy SCT085 64.4 64.4 100% 29.93 0.0
24 00:36 Calm 10.00 Fair CLR 66.2 64.4 94% 29.93 0.0
24 00:15 Calm 10.00 Fair CLR 66.2 64.4 94% 29.93 0.0
23 23:55 Calm 10.00 Partly Cloudy SCT085 68 64.4 88% 29.94 0.0
23 23:35 Calm 10.00 Mostly Cloudy BKN085 66.2 64.4 94% 29.94 0.0
23 23:15 Calm 10.00 Partly Cloudy SCT085 68 64.4 88% 29.93 0.0
23 22:55 Calm 10.00 Fair CLR 68 64.4 88% 29.93 0.0
23 22:35 Calm 10.00 Fair CLR 69.8 62.6 78% 29.93 0.0
23 22:16 Calm 10.00 Fair CLR 69.8 64.4 83% 29.93 0.0
23 21:55 Calm 10.00 Fair CLR 71.6 64.4 78% 29.92 0.0
23 21:35 Calm 10.00 Fair CLR 73.4 62.6 69% 29.91 0.0
23 21:15 Calm 10.00 Fair CLR 73.4 62.6 69% 29.91 0.0
23 20:55 Calm 10.00 Fair CLR 75.2 62.6 65% 77 29.91 0.0
23 20:35 W 3 10.00 Fair CLR 75.2 60.8 61% 77 29.9 0.0
23 20:15 W 6 10.00 Fair CLR 77 60.8 57% 79 29.9 0.0
23 19:56 W 6 10.00 Fair CLR 78.8 60.8 54% 80 29.9 0.0
23 18:55 W 7 10.00 Partly Cloudy SCT095 80.6 60.8 51% 81 29.9 0.0
23 18:35 W 9 10.00 Partly Cloudy SCT095 78.8 60.8 54% 80 29.9 0.0
23 18:15 NW 6 10.00 Fair CLR 78.8 62.6 58% 80 29.9 0.0
23 17:55 NW 8 10.00 Partly Cloudy SCT050 80.6 62.6 54% 82 29.9 0.0
23 17:36 NW 6 10.00 Fair CLR 80.6 60.8 51% 81 29.9 0.0
23 17:15 NW 8 G 16 10.00 Fair CLR 80.6 59 48% 81 29.91 0.0
23 16:55 W 9 10.00 Fair CLR 80.6 60.8 51% 81 29.9 0.0
23 16:35 NW 14 G 20 10.00 Partly Cloudy SCT049 80.6 60.8 51% 81 29.9 0.0
23 16:15 NW 10 G 17 10.00 Partly Cloudy SCT047 SCT055 80.6 62.6 54% 82 29.9 0.0
23 15:55 NW 8 10.00 Partly Cloudy SCT042 78.8 64.4 61% 81 29.91 0.0
23 15:35 NW 10 10.00 Partly Cloudy SCT042 78.8 62.6 58% 80 29.91 0.0
23 15:16 W 9 10.00 Partly Cloudy SCT039 78.8 64.4 61% 81 29.91 0.0
23 14:55 NW 9 G 18 10.00 Partly Cloudy SCT037 78.8 64.4 61% 81 29.91 0.0
23 14:35 NW 7 10.00 Partly Cloudy SCT035 78.8 64.4 61% 81 29.91 0.0
23 14:15 W 9 10.00 Partly Cloudy SCT033 SCT041 78.8 66.2 65% 81 29.91 0.0
23 13:55 NW 8 10.00 Partly Cloudy SCT033 78.8 66.2 65% 81 29.92 0.0
23 13:35 NW 7 10.00 Partly Cloudy SCT028 SCT050 77 66.2 69% 79 29.92 0.0
23 13:15 NW 9 10.00 Partly Cloudy SCT025 SCT050 75.2 66.2 74% 77 29.92 0.0
23 12:35 NW 9 10.00 Partly Cloudy SCT025 SCT031 SCT041 75.2 66.2 74% 77 29.92 0.0
23 12:15 NW 10 10.00 Partly Cloudy SCT023 75.2 66.2 74% 77 29.92 0.0
23 11:55 NW 8 10.00 Fair CLR 73.4 64.4 74% 29.92 0.0
23 11:35 N 9 10.00 Fair CLR 73.4 66.2 78% 29.92 0.0
23 11:15 N 7 10.00 Fair CLR 73.4 64.4 74% 29.91 0.0
23 10:55 N 7 10.00 Fair CLR 71.6 64.4 78% 29.91 0.0
23 10:36 NW 8 10.00 Fair CLR 71.6 64.4 78% 29.92 0.0
23 10:15 NW 8 10.00 Fair CLR 69.8 62.6 78% 29.92 0.0
23 09:55 NW 7 10.00 Fair CLR 69.8 62.6 78% 29.91 0.0
23 09:35 NW 6 10.00 Fair CLR 68 62.6 83% 29.91 0.0
23 09:15 N 8 10.00 Fair CLR 68 60.8 78% 29.9 0.0
23 08:55 NW 8 10.00 Fair CLR 66.2 60.8 83% 29.91 0.0
23 08:35 NW 7 10.00 Fair CLR 64.4 60.8 88% 29.9 0.0
23 08:16 NW 6 10.00 Fair CLR 64.4 60.8 88% 29.9 0.0
23 07:55 NW 6 10.00 Fair CLR 62.6 59 88% 29.9 0.0
23 07:35 NW 8 10.00 Partly Cloudy SCT006 62.6 59 88% 29.9 0.0
23 07:15 N 9 10.00 Mostly Cloudy BKN006 60.8 57.2 88% 29.9 0.0
23 06:55 NW 10 10.00 Overcast OVC006 60.8 59 94% 29.9 0.0
23 06:35 NW 8 10.00 Overcast OVC008 60.8 59 94% 29.89 0.0
23 06:15 N 9 10.00 Overcast OVC008 60.8 57.2 88% 29.89 0.0
23 05:56 NW 10 G 16 10.00 Overcast OVC008 60.8 57.2 88% 29.88 0.0
23 05:35 NW 13 G 17 10.00 Overcast OVC008 60.8 59 94% 29.88 0.0
23 05:15 N 8 10.00 Overcast OVC010 62.6 59 88% 29.87 0.0
23 04:55 N 6 10.00 Overcast OVC010 62.6 59 88% 29.86 0.0
23 04:35 N 7 10.00 Overcast OVC010 62.6 60.8 94% 29.86 0.0
23 04:15 N 8 10.00 Overcast OVC012 62.6 60.8 94% 29.86 0.0
23 03:55 N 10 10.00 Overcast OVC012 62.6 60.8 94% 29.86 0.0
23 03:36 NW 10 10.00 Overcast OVC012 62.6 60.8 94% 29.86 0.0
23 03:15 NW 12 G 18 10.00 Overcast OVC012 64.4 60.8 88% 29.85 0.0
23 02:55 NW 10 G 16 10.00 Overcast OVC014 64.4 60.8 88% 29.85 0.0
23 02:35 NW 12 10.00 Overcast OVC014 64.4 60.8 88% 29.84 0.0
23 02:15 NW 8 10.00 Overcast OVC014 64.4 60.8 88% 29.84 0.0
23 01:55 NW 13 G 21 10.00 Overcast OVC014 64.4 60.8 88% 29.84 0.0
23 01:35 NW 9 G 20 10.00 Overcast OVC014 64.4 62.6 94% 29.84 0.0
23 01:16 NW 10 G 16 10.00 Overcast OVC014 64.4 62.6 94% 29.83 0.0
23 00:55 NW 10 G 17 10.00 Overcast OVC014 66.2 62.6 88% 29.83 0.0
23 00:35 NW 12 G 17 10.00 Overcast OVC014 66.2 62.6 88% 29.83 0.0
23 00:15 NW 15 G 21 10.00 Overcast OVC014 66.2 64.4 94% 29.83 0.0
22 23:55 NW 8 10.00 Overcast OVC014 66.2 64.4 94% 29.83 0.0
22 23:35 NW 10 10.00 Overcast OVC014 66.2 64.4 94% 29.83 0.0
22 23:15 NW 12 G 17 10.00 Overcast OVC014 68 64.4 88% 29.83 0.0
22 22:56 NW 12 G 17 10.00 Overcast OVC014 68 64.4 88% 29.82 0.0
22 22:35 NW 14 10.00 Overcast OVC014 69.8 66.2 88% 29.82 0.0
22 22:15 NW 10 10.00 Overcast BKN010 BKN015 OVC065 69.8 66.2 88% 29.81 0.0
22 21:55 NW 10 10.00 Overcast SCT009 SCT014 OVC065 69.8 68 94% 29.8 0.0
22 21:35 NW 8 10.00 Overcast SCT009 BKN036 OVC070 69.8 68 94% 29.8 0.0
22 21:15 NW 9 10.00 Overcast SCT009 BKN023 OVC033 71.6 69.8 94% 29.79 0.0
22 20:55 NW 6 7.00 Heavy Drizzle SCT017 BKN037 OVC060 71.6 69.8 94% 29.78 0.0 0.01
22 20:36 NW 3 10.00 Overcast SCT039 BKN049 OVC070 71.6 69.8 94% 29.77 0.0
22 20:15 NW 3 10.00 Overcast SCT026 SCT035 OVC049 71.6 69.8 94% 29.77 0.0
22 19:55 NW 5 10.00 Overcast SCT028 BKN036 OVC049 71.6 69.8 94% 29.76 0.0
22 19:35 N 5 10.00 Mostly Cloudy SCT037 BKN049 71.6 69.8 94% 29.76 0.0
22 19:15 Calm 7.00 Overcast SCT016 BKN037 OVC045 71.6 69.8 94% 29.76 0.0
22 18:55 N 3 10.00 Overcast SCT012 BKN028 OVC043 73.4 69.8 89% 29.76 0.0
22 18:35 N 3 10.00 Overcast SCT012 BKN019 OVC043 73.4 69.8 89% 29.76 0.0
22 18:16 NE 3 10.00 Overcast BKN012 BKN017 OVC022 73.4 69.8 89% 29.76 0.0
22 17:55 Calm 10.00 Overcast BKN015 OVC022 73.4 69.8 89% 29.77 0.0
22 17:35 Calm 10.00 Mostly Cloudy BKN015 73.4 69.8 89% 29.76 0.0
22 17:15 N 3 10.00 Overcast OVC011 73.4 69.8 89% 29.77 0.0
22 16:55 NE 6 10.00 Mostly Cloudy BKN009 BKN015 73.4 69.8 89% 29.76 0.0
22 16:35 NE 6 5.00 Light Rain SCT003 SCT009 SCT028 73.4 71.6 94% 29.76 0.0
22 16:15 N 3 5.00 Thunderstorm Heavy Rain SCT005 BKN014 BKN027 71.6 71.6 100% 29.77 0.0
22 15:56 Calm 10.00 Thunderstorm Rain BKN003 BKN013 BKN021 71.6 69.8 94% 29.79 0.0 0.01
22 15:35 NW 18 G 24 0.00 Thunderstorm Heavy Rain SCT021 BKN036 OVC055 75.2 69.8 83% 75 29.8 0.0 0.07
22 15:15 Calm 10.00 Overcast SCT036 OVC055 77 69.8 79% 79 29.76 0.0
22 14:55 SE 5 10.00 Overcast OVC055 77 69.8 79% 79 29.76 0.0
22 14:35 SE 5 10.00 Mostly Cloudy BKN055 BKN070 77 69.8 79% 79 29.77 0.0
Date Time (cdt) Wind (mph) Vis. (mi.) Weather Sky Cond. Air Dwpt Max. Min. Relative Humidity Wind Chill (°F) Heat Index (°F) altimeter (in) sea level (mb) 1 hr 3 hr 6 hr
6 hour
Temperature (ºF) Pressure Precipitation (in)